Lid_Strength_Index
20 21 21 20 20 20 20 19 18 17 17 16 16 16 16 16 15 15 15 15 14 13
21 21 21 21 20 20 19 19 18 18 17 17 17 16 16 16 16 15 14 14 13 13
21 21 21 21 21 20 20 19 19 18 18 17 17 16 16 16 15 15 15 15 15 14
21 21 21 21 21 20 20 20 19 19 18 18 17 17 17 16 16 15 16 16 16 15
22 21 22 22 21 20 20 20 19 19 19 19 18 18 18 17 16 16 17 16 16 15
22 23 22 22 21 21 21 21 20 20 20 20 19 18 18 17 17 17 17 17 16 15
23 23 22 22 21 21 21 21 21 21 21 20 19 18 17 17 18 18 17 16 16 15
23 22 22 22 22 22 22 22 22 21 21 20 19 17 17 17 18 18 17 16 16 15
23 23 23 23 23 23 23 23 23 22 21 21 19 16 14 15 16 16 16 16 15 15
25 25 24 24 24 24 24 24 23 22 22 21 19 15 15 15 15 15 15 15 15 15
26 26 26 26 26 25 24 24 24 23 22 20 19 16 15 15 15 14 14 14 15 15
26 27 27 28 26 25 24 25 24 22 22 21 20 17 15 15 15 14 14 13 14 15
26 28 28 27 27 25 25 24 23 22 20 20 21 17 16 15 16 16 14 13 14 14
27 28 28 27 26 26 26 24 24 22 19 19 19 19 16 15 16 16 14 14 15 15